N444KM KVNY-KSFO

Flight info

Callsign N444KM
Flight time 0h 53m
Altitude 40000
Route WLKKR5 COREZ MAKRS SERFR SERFR4
Aircraft CL60/M-SBDE1E2E3FGHIJ1J4J5J7M3RWXYZ/LB1V1D1

Departure

Time 2026-04-21 04:09
Airport Van Nuys Airport (KVNY)

Arrival

Time 2026-04-21 05:03
Airport San Francisco International Airport (KSFO)
Time Latitude Longitude Altitude Speed Heading
2026-04-21 03:36 34.19968 -118.48800 759 ft 0 kts 91°
2026-04-21 03:58 34.19968 -118.48799 759 ft 1 kts 91°
2026-04-21 03:58 34.19980 -118.48785 759 ft 4 kts 358°
2026-04-21 03:58 34.20018 -118.48784 760 ft 6 kts 341°
2026-04-21 03:59 34.20051 -118.48808 760 ft 6 kts 337°
2026-04-21 03:59 34.20089 -118.48850 760 ft 8 kts 343°
2026-04-21 03:59 34.20156 -118.48855 762 ft 11 kts
2026-04-21 04:00 34.20348 -118.48851 766 ft 16 kts
2026-04-21 04:00 34.20462 -118.48843 770 ft 16 kts
2026-04-21 04:00 34.20576 -118.48836 773 ft 15 kts
2026-04-21 04:00 34.20689 -118.48825 776 ft 17 kts
2026-04-21 04:01 34.20819 -118.48816 778 ft 19 kts 359°
2026-04-21 04:01 34.20925 -118.48828 780 ft 14 kts 355°
2026-04-21 04:01 34.21027 -118.48838 782 ft 12 kts 355°
2026-04-21 04:01 34.21120 -118.48846 784 ft 14 kts 357°
2026-04-21 04:02 34.21229 -118.48855 787 ft 16 kts 356°
2026-04-21 04:02 34.21334 -118.48867 789 ft 9 kts 355°
2026-04-21 04:02 34.21408 -118.48874 791 ft 12 kts 355°
2026-04-21 04:02 34.21500 -118.48883 793 ft 14 kts 354°
2026-04-21 04:03 34.21607 -118.48902 795 ft 16 kts 349°
2026-04-21 04:03 34.21684 -118.48923 797 ft 11 kts 348°
2026-04-21 04:03 34.21748 -118.48937 799 ft 8 kts 353°
2026-04-21 04:03 34.21815 -118.48944 800 ft 11 kts 356°
2026-04-21 04:04 34.21880 -118.48950 801 ft 6 kts 347°
2026-04-21 04:04 34.21891 -118.49004 802 ft 8 kts 268°
2026-04-21 04:04 34.21889 -118.49046 802 ft 0 kts 266°
2026-04-21 04:04 34.21889 -118.49048 802 ft 0 kts 266°
2026-04-21 04:08 34.21887 -118.49077 802 ft 6 kts 266°
2026-04-21 04:08 34.21861 -118.49120 802 ft 9 kts 181°
2026-04-21 04:08 34.21840 -118.49119 801 ft 0 kts 175°
2026-04-21 04:08 34.21599 -118.49095 797 ft 94 kts 176°
2026-04-21 04:09 34.20607 -118.49003 998 ft 174 kts 176°
2026-04-21 04:09 34.19352 -118.48907 2001 ft 194 kts 177°
2026-04-21 04:09 34.18028 -118.48872 3261 ft 204 kts 181°
2026-04-21 04:09 34.16568 -118.48873 4430 ft 220 kts 180°
2026-04-21 04:10 34.15104 -118.49551 4205 ft 232 kts 227°
2026-04-21 04:10 34.14218 -118.51283 3894 ft 250 kts 241°
2026-04-21 04:10 34.13411 -118.53044 3990 ft 236 kts 240°
2026-04-21 04:10 34.12588 -118.54842 4014 ft 255 kts 241°
2026-04-21 04:11 34.11542 -118.56580 3957 ft 262 kts 229°
2026-04-21 04:11 34.10290 -118.58149 3892 ft 255 kts 225°
2026-04-21 04:11 34.09034 -118.59693 4052 ft 259 kts 229°
2026-04-21 04:11 34.08234 -118.61520 5049 ft 254 kts 257°
2026-04-21 04:12 34.07822 -118.63648 5978 ft 277 kts 251°
2026-04-21 04:12 34.06916 -118.65681 6387 ft 271 kts 232°
2026-04-21 04:12 34.05930 -118.67622 7027 ft 273 kts 246°
2026-04-21 04:12 34.05742 -118.69900 7636 ft 282 kts 279°
2026-04-21 04:13 34.06620 -118.72006 8251 ft 290 kts 308°
2026-04-21 04:13 34.08138 -118.73516 9292 ft 288 kts 326°
2026-04-21 04:13 34.10009 -118.74513 10355 ft 305 kts 341°
2026-04-21 04:13 34.12103 -118.74979 11432 ft 316 kts 356°
2026-04-21 04:14 34.14285 -118.74599 12452 ft 326 kts 20°
2026-04-21 04:14 34.16244 -118.73155 13499 ft 338 kts 41°
2026-04-21 04:14 34.18028 -118.71244 14466 ft 352 kts 43°
2026-04-21 04:14 34.19910 -118.69290 15437 ft 364 kts 42°
2026-04-21 04:15 34.21833 -118.67306 16422 ft 373 kts 42°
2026-04-21 04:15 34.23829 -118.65251 17442 ft 379 kts 41°
2026-04-21 04:15 34.26032 -118.63532 18469 ft 385 kts 25°
2026-04-21 04:15 34.28583 -118.62602 19523 ft 387 kts
2026-04-21 04:16 34.31269 -118.62608 20449 ft 389 kts 347°
2026-04-21 04:16 34.33885 -118.63435 21208 ft 395 kts 339°
2026-04-21 04:16 34.36547 -118.64429 22027 ft 402 kts 338°
2026-04-21 04:16 34.39164 -118.65630 22890 ft 405 kts 333°
2026-04-21 04:17 34.41770 -118.66952 23743 ft 410 kts 333°
2026-04-21 04:17 34.44291 -118.68491 24678 ft 408 kts 326°
2026-04-21 04:17 34.46756 -118.70246 25566 ft 410 kts 325°
2026-04-21 04:17 34.49244 -118.72015 26377 ft 414 kts 325°
2026-04-21 04:18 34.51804 -118.73834 27180 ft 417 kts 325°
2026-04-21 04:18 34.54347 -118.75640 27956 ft 419 kts 325°
2026-04-21 04:18 34.56908 -118.77458 28663 ft 423 kts 325°
2026-04-21 04:18 34.59464 -118.79273 29346 ft 425 kts 325°
2026-04-21 04:19 34.62007 -118.81079 29995 ft 428 kts 325°
2026-04-21 04:19 34.64606 -118.82925 30544 ft 432 kts 325°
2026-04-21 04:19 34.67197 -118.84766 31029 ft 437 kts 325°
2026-04-21 04:19 34.69851 -118.86653 31514 ft 442 kts 325°
2026-04-21 04:20 34.72524 -118.88554 31952 ft 446 kts 324°
2026-04-21 04:20 34.75194 -118.90455 32353 ft 451 kts 324°
2026-04-21 04:20 34.77932 -118.92404 32798 ft 454 kts 324°
2026-04-21 04:20 34.80683 -118.94365 33204 ft 458 kts 324°
2026-04-21 04:21 34.83419 -118.96320 33559 ft 462 kts 324°
2026-04-21 04:21 34.86182 -118.98295 33965 ft 464 kts 324°
2026-04-21 04:21 34.88984 -119.00297 34526 ft 463 kts 324°
2026-04-21 04:21 34.91730 -119.02260 35209 ft 459 kts 324°
2026-04-21 04:22 34.94478 -119.04226 35890 ft 456 kts 324°
2026-04-21 04:22 34.97212 -119.06183 36589 ft 452 kts 324°
2026-04-21 04:22 34.99896 -119.08106 37124 ft 451 kts 324°
2026-04-21 04:22 35.02606 -119.10049 37608 ft 450 kts 324°
2026-04-21 04:23 35.05309 -119.11988 38054 ft 450 kts 324°
2026-04-21 04:23 35.08000 -119.13921 38434 ft 450 kts 324°
2026-04-21 04:23 35.10697 -119.15860 38838 ft 449 kts 324°
2026-04-21 04:23 35.13374 -119.17784 39250 ft 448 kts 324°
2026-04-21 04:24 35.16060 -119.19717 39565 ft 448 kts 324°
2026-04-21 04:24 35.18757 -119.21661 39877 ft 448 kts 324°
2026-04-21 04:24 35.21425 -119.23585 39963 ft 451 kts 324°
2026-04-21 04:25 35.26879 -119.27521 39957 ft 455 kts 324°
2026-04-21 04:25 35.32318 -119.31448 39962 ft 452 kts 324°
2026-04-21 04:26 35.37735 -119.35370 39967 ft 451 kts 324°
2026-04-21 04:26 35.43169 -119.39311 39968 ft 456 kts 323°
2026-04-21 04:27 35.48534 -119.43530 39970 ft 458 kts 316°
2026-04-21 04:27 35.52974 -119.49040 39971 ft 451 kts 301°
2026-04-21 04:28 35.56095 -119.55578 39975 ft 440 kts 287°
2026-04-21 04:28 35.57811 -119.62674 39972 ft 431 kts 276°
2026-04-21 04:29 35.58884 -119.69883 39967 ft 430 kts 275°
2026-04-21 04:29 35.59955 -119.77090 39978 ft 430 kts 275°
2026-04-21 04:30 35.61025 -119.84337 39980 ft 431 kts 275°
2026-04-21 04:30 35.62087 -119.91563 39978 ft 431 kts 275°
2026-04-21 04:31 35.63149 -119.98821 39985 ft 432 kts 275°
2026-04-21 04:31 35.64207 -120.06076 39979 ft 432 kts 275°
2026-04-21 04:32 35.65260 -120.13333 39978 ft 432 kts 275°
2026-04-21 04:32 35.66304 -120.20563 39982 ft 431 kts 275°
2026-04-21 04:33 35.67341 -120.27774 39984 ft 429 kts 275°
2026-04-21 04:33 35.68642 -120.34981 39994 ft 435 kts 283°
2026-04-21 04:34 35.71119 -120.41834 39990 ft 440 kts 289°
2026-04-21 04:34 35.73705 -120.48585 39996 ft 439 kts 289°
2026-04-21 04:35 35.76303 -120.55383 40003 ft 439 kts 289°
2026-04-21 04:35 35.78891 -120.62170 39997 ft 438 kts 289°
2026-04-21 04:36 35.81469 -120.68948 39998 ft 437 kts 288°
2026-04-21 04:36 35.84036 -120.75711 39994 ft 437 kts 288°
2026-04-21 04:37 35.86608 -120.82502 39985 ft 435 kts 288°
2026-04-21 04:37 35.89143 -120.89209 39988 ft 434 kts 288°
2026-04-21 04:38 35.91685 -120.95949 39992 ft 429 kts 288°
2026-04-21 04:38 35.94164 -121.02528 39984 ft 420 kts 287°
2026-04-21 04:39 35.96619 -121.09068 39951 ft 418 kts 287°
2026-04-21 04:39 35.97829 -121.12302 39694 ft 420 kts 287°
2026-04-21 04:39 35.99053 -121.15569 39449 ft 418 kts 287°
2026-04-21 04:39 36.00262 -121.18803 39186 ft 418 kts 287°
2026-04-21 04:40 36.01480 -121.22064 38812 ft 419 kts 287°
2026-04-21 04:40 36.02710 -121.25360 38438 ft 418 kts 287°
2026-04-21 04:40 36.03929 -121.28599 38063 ft 419 kts 288°
2026-04-21 04:40 36.05369 -121.31791 37693 ft 426 kts 294°
2026-04-21 04:41 36.07103 -121.34772 37323 ft 434 kts 301°
2026-04-21 04:41 36.09135 -121.37519 36858 ft 443 kts 308°
2026-04-21 04:41 36.11506 -121.40010 36355 ft 451 kts 315°
2026-04-21 04:41 36.14137 -121.42176 35856 ft 458 kts 320°
2026-04-21 04:42 36.16855 -121.44291 35345 ft 459 kts 319°
2026-04-21 04:42 36.19580 -121.46419 34850 ft 461 kts 319°
2026-04-21 04:42 36.22301 -121.48546 34352 ft 463 kts 319°
2026-04-21 04:42 36.25006 -121.50661 33866 ft 465 kts 319°
2026-04-21 04:43 36.27722 -121.52788 33297 ft 468 kts 319°
2026-04-21 04:43 36.30493 -121.54958 32584 ft 465 kts 320°
2026-04-21 04:43 36.33175 -121.57053 31898 ft 457 kts 319°
2026-04-21 04:43 36.35859 -121.59157 31231 ft 455 kts 319°
2026-04-21 04:44 36.38530 -121.61253 30534 ft 453 kts 319°
2026-04-21 04:44 36.41170 -121.63326 29769 ft 450 kts 319°
2026-04-21 04:44 36.43811 -121.65402 28997 ft 446 kts 318°
2026-04-21 04:44 36.46420 -121.67453 28223 ft 442 kts 318°
2026-04-21 04:45 36.48990 -121.69476 27450 ft 437 kts 318°
2026-04-21 04:45 36.51554 -121.71497 26677 ft 434 kts 318°
2026-04-21 04:45 36.54064 -121.73480 25826 ft 432 kts 319°
2026-04-21 04:45 36.56589 -121.75474 24925 ft 427 kts 319°
2026-04-21 04:46 36.59084 -121.77446 24043 ft 422 kts 319°
2026-04-21 04:46 36.61533 -121.79385 23237 ft 422 kts 319°
2026-04-21 04:46 36.64014 -121.81357 22537 ft 425 kts 319°
2026-04-21 04:46 36.66499 -121.83328 21839 ft 423 kts 319°
2026-04-21 04:47 36.68957 -121.85275 21064 ft 418 kts 320°
2026-04-21 04:47 36.71405 -121.87220 20291 ft 416 kts 320°
2026-04-21 04:47 36.73894 -121.89027 19536 ft 420 kts 329°
2026-04-21 04:47 36.76713 -121.90161 18754 ft 423 kts 343°
2026-04-21 04:48 36.79573 -121.90948 17994 ft 420 kts 343°
2026-04-21 04:48 36.82378 -121.91726 17250 ft 416 kts 343°
2026-04-21 04:48 36.85177 -121.92504 16504 ft 411 kts 343°
2026-04-21 04:48 36.87953 -121.93277 15851 ft 405 kts 344°
2026-04-21 04:49 36.90706 -121.94046 15333 ft 407 kts 344°
2026-04-21 04:49 36.93462 -121.94816 14762 ft 402 kts 344°
2026-04-21 04:49 36.96143 -121.95675 14230 ft 394 kts 340°
2026-04-21 04:49 36.98748 -121.96684 13702 ft 390 kts 339°
2026-04-21 04:50 37.01296 -121.97678 13194 ft 386 kts 339°
2026-04-21 04:50 37.03840 -121.98667 12654 ft 373 kts 339°
2026-04-21 04:50 37.06256 -121.99606 12205 ft 357 kts 339°
2026-04-21 04:50 37.08588 -122.00514 11743 ft 345 kts 339°
2026-04-21 04:51 37.10836 -122.01392 11298 ft 335 kts 339°
2026-04-21 04:51 37.13044 -122.02254 10858 ft 326 kts 339°
2026-04-21 04:51 37.15161 -122.03081 10435 ft 317 kts 339°
2026-04-21 04:51 37.17264 -122.03904 10022 ft 315 kts 339°
2026-04-21 04:52 37.19350 -122.04721 9590 ft 313 kts 339°
2026-04-21 04:52 37.21406 -122.05527 9176 ft 310 kts 339°
2026-04-21 04:52 37.23465 -122.06335 8767 ft 307 kts 340°
2026-04-21 04:52 37.25483 -122.07127 8361 ft 304 kts 339°
2026-04-21 04:53 37.27502 -122.07921 7961 ft 300 kts 339°
2026-04-21 04:53 37.29497 -122.08705 7569 ft 297 kts 339°
2026-04-21 04:53 37.31446 -122.09473 7173 ft 294 kts 339°
2026-04-21 04:53 37.33390 -122.10239 6787 ft 290 kts 339°
2026-04-21 04:54 37.35283 -122.10985 6407 ft 286 kts 339°
2026-04-21 04:54 37.37186 -122.11726 6064 ft 282 kts 340°
2026-04-21 04:54 37.39067 -122.12383 5978 ft 282 kts 341°
2026-04-21 04:54 37.40961 -122.13035 5977 ft 282 kts 342°
2026-04-21 04:55 37.42857 -122.13689 5978 ft 283 kts 342°
2026-04-21 04:55 37.44767 -122.14346 5857 ft 284 kts 342°
2026-04-21 04:55 37.46697 -122.14912 5610 ft 284 kts 353°
2026-04-21 04:55 37.48676 -122.14786 5358 ft 284 kts 12°
2026-04-21 04:56 37.50395 -122.13686 5134 ft 273 kts 47°
2026-04-21 04:56 37.51603 -122.11958 4937 ft 262 kts 49°
2026-04-21 04:56 37.53150 -122.10815 4703 ft 256 kts 11°
2026-04-21 04:56 37.54875 -122.10889 4277 ft 255 kts 347°
2026-04-21 04:57 37.56502 -122.11710 3883 ft 239 kts 314°
2026-04-21 04:57 37.57431 -122.13334 3461 ft 234 kts 292°
2026-04-21 04:57 37.58158 -122.15205 2911 ft 229 kts 285°
2026-04-21 04:57 37.58274 -122.16990 2993 ft 189 kts 248°
2026-04-21 04:58 37.57699 -122.18348 3013 ft 170 kts 233°
2026-04-21 04:58 37.57029 -122.19569 2975 ft 166 kts 232°
2026-04-21 04:58 37.56416 -122.20691 3017 ft 147 kts 231°
2026-04-21 04:58 37.55861 -122.21742 2994 ft 142 kts 236°
2026-04-21 04:59 37.55798 -122.22973 2957 ft 150 kts 286°
2026-04-21 04:59 37.56347 -122.24025 3032 ft 140 kts 299°
2026-04-21 04:59 37.56859 -122.25061 3007 ft 134 kts 291°
2026-04-21 04:59 37.57320 -122.26082 2898 ft 135 kts 296°
2026-04-21 05:00 37.57819 -122.27074 2585 ft 135 kts 296°
2026-04-21 05:00 37.58298 -122.28082 2172 ft 133 kts 294°
2026-04-21 05:00 37.59064 -122.30089 1344 ft 125 kts 292°
2026-04-21 05:01 37.59450 -122.31060 954 ft 124 kts 299°
2026-04-21 05:01 37.59846 -122.31986 725 ft 121 kts 294°
2026-04-21 05:01 37.60224 -122.32931 600 ft 122 kts 294°
2026-04-21 05:01 37.60607 -122.33913 445 ft 123 kts 296°
2026-04-21 05:02 37.60990 -122.34827 189 ft 116 kts 296°
2026-04-21 05:02 37.61359 -122.35719 73 ft 114 kts 298°
2026-04-21 05:02 37.61709 -122.36559 17 ft 97 kts 297°
2026-04-21 05:02 37.61965 -122.37170 14 ft 52 kts 297°
2026-04-21 05:03 37.62087 -122.37454 19 ft 27 kts 299°
2026-04-21 05:03 37.62165 -122.37617 23 ft 12 kts 342°
2026-04-21 05:03 37.62220 -122.37569 22 ft 1 kts 47°
2026-04-21 05:03 37.62249 -122.37543 21 ft 8 kts 18°
2026-04-21 05:04 37.62299 -122.37599 21 ft 12 kts 297°
2026-04-21 05:04 37.62347 -122.37715 22 ft 16 kts 298°
2026-04-21 05:04 37.62406 -122.37854 23 ft 19 kts 297°
2026-04-21 05:04 37.62474 -122.38018 25 ft 22 kts 299°
2026-04-21 05:05 37.62537 -122.38168 23 ft 20 kts 298°
2026-04-21 05:05 37.62605 -122.38333 22 ft 22 kts 301°
2026-04-21 05:05 37.62655 -122.38444 21 ft 9 kts 304°
2026-04-21 05:05 37.62730 -122.38424 19 ft 15 kts 40°
2026-04-21 05:06 37.62781 -122.38400 18 ft 8 kts 324°
2026-04-21 05:06 37.62794 -122.38425 18 ft 0 kts 297°
2026-04-21 05:18 37.62794 -122.38426 18 ft 0 kts 297°
2026-04-21 05:21 37.62794 -122.38425 18 ft 1 kts 297°
2026-04-21 05:21 37.62790 -122.38407 18 ft 2 kts 269°
2026-04-21 05:21 37.62794 -122.38390 18 ft 2 kts 242°
2026-04-21 05:21 37.62804 -122.38375 18 ft 2 kts 214°
2026-04-21 05:22 37.62816 -122.38366 18 ft 2 kts 220°
2026-04-21 05:22 37.62826 -122.38351 18 ft 2 kts 240°
2026-04-21 05:22 37.62834 -122.38335 18 ft 2 kts 220°
2026-04-21 05:22 37.62848 -122.38329 17 ft 2 kts 180°
2026-04-21 05:23 37.62862 -122.38334 17 ft 2 kts 160°
2026-04-21 05:23 37.62867 -122.38336 17 ft 0 kts 160°